Weather History for West Palm Beach, FL

Change the Weather History Date:

Sunday, April 20, 2014

  Actual Average Record
Temperature  
Mean Temperature 71 °F 74 °F  
Max Temperature 78 °F 82 °F 92 °F (2006)
Min Temperature 64 °F 66 °F 55 °F (1997)
Degree Days  
Heating Degree Days 0 0  
Month to date heating degree days 0 0  
Since 1 July heating degree days 122 229  
Cooling Degree Days 6 9  
Month to date cooling degree days 207 164  
Year to date cooling degree days 755 592  
Growing Degree Days 21 (Base 50)    
Moisture  
Dew Point 58 °F    
Average Humidity 69    
Maximum Humidity 81    
Minimum Humidity 56    
Precipitation  
Precipitation 0.00 in 0.12 in 4.32 in (1994)
Month to date precipitation 1.04 2.58  
Year to date precipitation 14.92 13.12  
Snow  
Snow 0.00 in - - ()
Month to date snowfall 0.0  
Since 1 July snowfall 0.0  
Snow Depth 0.00 in    
Sea Level Pressure  
Sea Level Pressure 30.00 in    
Wind  
Wind Speed 10 mph (NW)    
Max Wind Speed 16 mph    
Max Gust Speed 21 mph    
Visibility 10 miles    
Events      
T = Trace of Precipitation, MM = Missing Value Source: NWS Daily Summary

Daily Weather History Graph

Daily Weather History Graph

Search for Another Location

Airport:

Trip Planner

Search our weather history database for the weather conditions in past years. The results will help you decide how hot, cold, wet, or windy it might be!

Date:

Astronomy

Apr. 20, 2014 Rise Set
Actual Time 6:51 AM EDT 7:47 PM EDT
Civil Twilight 6:27 AM EDT 8:11 PM EDT
Nautical Twilight 5:59 AM EDT 8:39 PM EDT
Astronomical Twilight 5:30 AM EDT 9:08 PM EDT
Moon 12:14 AM EDT (4/20) 11:21 AM EDT (4/20)
Length of Visible Light 13h 43m
Length of Day
12h 55m
Waning Gibbous, 69% of the Moon is Illuminated
Apr 20
Waning Gibbous
Apr 22
Last Quarter
Apr 29
New
May 6
First Quarter
May 14
Full

Hourly Weather History & Observations

Time (EDT) Temp. Dew Point Humidity Pressure Visibility Wind Dir Wind Speed Gust Speed Precip Events Conditions
12:53 AM 64.9 °F 57.9 °F 78% 29.99 in 10.0 mi WNW 9.2 mph - N/A   Partly Cloudy
1:53 AM 64.0 °F 57.0 °F 78% 29.98 in 10.0 mi West 6.9 mph - N/A   Partly Cloudy
2:53 AM 66.0 °F 57.0 °F 73% 29.96 in 10.0 mi West 9.2 mph - N/A   Mostly Cloudy
3:53 AM 66.0 °F 55.9 °F 70% 29.95 in 10.0 mi West 12.7 mph - N/A   Mostly Cloudy
4:53 AM 64.9 °F 55.0 °F 70% 29.94 in 10.0 mi West 9.2 mph - N/A   Mostly Cloudy
5:53 AM 64.9 °F 55.0 °F 70% 29.95 in 10.0 mi West 12.7 mph - N/A   Mostly Cloudy
6:53 AM 64.9 °F 55.0 °F 70% 29.98 in 10.0 mi West 12.7 mph - N/A   Overcast
7:10 AM 64.9 °F 55.9 °F 73% 29.98 in 10.0 mi West 11.5 mph - N/A   Overcast
7:53 AM 66.0 °F 55.9 °F 70% 30.00 in 10.0 mi WNW 10.4 mph - N/A   Mostly Cloudy
8:53 AM 66.9 °F 55.0 °F 66% 30.00 in 10.0 mi WNW 9.2 mph - N/A   Mostly Cloudy
9:33 AM 69.1 °F 57.0 °F 65% 30.01 in 10.0 mi WNW 10.4 mph - N/A   Mostly Cloudy
9:53 AM 70.0 °F 57.9 °F 65% 30.01 in 10.0 mi WNW 11.5 mph - N/A   Mostly Cloudy
10:09 AM 70.0 °F 57.9 °F 65% 30.02 in 10.0 mi WNW 11.5 mph - N/A   Mostly Cloudy
10:53 AM 70.0 °F 60.1 °F 71% 30.03 in 10.0 mi NW 8.1 mph - N/A   Mostly Cloudy
11:53 AM 72.0 °F 57.9 °F 61% 30.03 in 10.0 mi NW 9.2 mph - N/A   Mostly Cloudy
12:13 PM 73.9 °F 57.9 °F 57% 30.03 in 10.0 mi NNW 10.4 mph 18.4 mph N/A   Mostly Cloudy
12:53 PM 73.9 °F 57.9 °F 57% 30.01 in 10.0 mi NW 8.1 mph - N/A   Mostly Cloudy
1:53 PM 75.0 °F 59.0 °F 57% 30.01 in 10.0 mi NW 8.1 mph - N/A   Overcast
2:53 PM 75.9 °F 60.1 °F 58% 30.00 in 10.0 mi NW 10.4 mph - N/A   Overcast
3:53 PM 75.0 °F 61.0 °F 62% 29.99 in 10.0 mi NNE 6.9 mph - N/A   Overcast
4:53 PM 77.0 °F 60.1 °F 56% 29.98 in 10.0 mi NW 10.4 mph - N/A   Mostly Cloudy
5:53 PM 75.0 °F 61.0 °F 62% 29.98 in 10.0 mi North 11.5 mph - N/A   Mostly Cloudy
6:53 PM 73.0 °F 60.1 °F 64% 29.98 in 10.0 mi North 11.5 mph - N/A   Mostly Cloudy
7:53 PM 70.0 °F 61.0 °F 73% 30.00 in 10.0 mi North 10.4 mph - N/A   Scattered Clouds
8:53 PM 69.1 °F 60.1 °F 73% 30.02 in 10.0 mi North 8.1 mph - N/A   Scattered Clouds
9:53 PM 68.0 °F 60.1 °F 76% 30.04 in 10.0 mi North 9.2 mph - N/A   Partly Cloudy
10:53 PM 66.9 °F 60.1 °F 79% 30.04 in 10.0 mi North 5.8 mph - N/A   Partly Cloudy
11:36 PM 68.0 °F 60.1 °F 76% 30.04 in 10.0 mi North 9.2 mph - N/A   Mostly Cloudy
11:53 PM 68.0 °F 60.1 °F 76% 30.04 in 10.0 mi North 6.9 mph - N/A   Mostly Cloudy